THORAD AGENA D DEB, 4928

Orbit data source: Space-Track

THORAD AGENA D DEB, 4928 is space debris in SSO originally from a launch on Wed, 08 Apr 1970 UTC launched from the Air Force Western Test Range (AFWTR). Debris objects in space refer to the collection of defunct objects orbiting the Earth. Examples of debris include non-operational satellites, rocket bodies, and fragments generated from explosions, collisions, or faulty payload assembly.

Loading next visibility...
Identifier
4928, 1970-025FU
Orbit
SSO
Country
Flag of USUS
Related business
Manufacturer
Unknown
Mission
Spacecraft
Bus & Motor
Unknown
Mass
Unknown
Launch date (UTC)
1970-04-08 (56 years ago)
Launch vehicle
Unknown
Launch site
Air Force Western Test Range (AFWTR)
Object type
Payload
Rocket body
Debris
Shape & HBR
Unknown shape, 0.1 m
Radar Cross Section
Medium (>0.1 m² and <1 m²)

Expand to show TLE details & history
Last TLE update: 9 hours ago

TLE from 9 hours ago
0 THORAD AGENA D DEB
1  4928U 70025FU  26095.35005868 -.00000985  00000-0 -31448-2 0  9990
2  4928  99.7556  19.7762 0433151 111.8462  10.8232 12.73010832589632
Epoch: 2026-04-05T08:24Z
TLE epoch observation values (Epoch: 2026-04-05T08:24:05.069Z)
Latitude
55.22034°
Longitude
-105.64431°
Altitude
1,049.582 km
Speed
7.487 km/s
True Right ascension
14h 16m 08s
True Declination
55° 03' 55"
Sunlit
Object was in daylight at epoch
Visualization orbit readout
Latitude
Unknown
Longitude
Unknown
Altitude
Unknown
Speed
Unknown
Apparent Right ascension
Unknown
Apparent Declination
Unknown
Sunlit
N/A
Visualization observer readout
Local Sidereal Time
23:14:14
Azimuth
Unknown
Elevation
Unknown
Doppler factor
Unknown
Orbital elements
Apogee altitude
1,702.586 km
Perigee altitude
1,031.614 km
Semi-major axis
7,745.237 km
Eccentricity
0.04332
Inclination
99.7556°
RAAN
19.7762°
Arg. of periapsis
111.8462°
True anomaly
11.80743°
Mean anomaly
10.8232°
Eccentric anomaly
11.30991°
Mean motion
3.18413 °/min
Orbital period
113.06 mins
BSTAR
-0.0031448
Loading maneuver chart data...
Computing Atmospheric mass density...

Documentation

Showing up to 5 results
|